Time,TemperatureF,DewpointF,PressureIn,WindDirection,WindDirectionDegrees,WindSpeedMPH,WindSpeedGustMPH,Humidity,HourlyPrecipIn,Conditions,Clouds,dailyrainin,SoftwareType,DateUTC
2013-06-20 00:01:00,54.0,54.0,-100.00,ENE,74,0.0,0.0,100,0.00,,,0.00,,2013-06-20 07:01:00,
2013-06-20 00:11:00,54.0,54.0,-100.00,ENE,74,0.0,0.0,100,0.00,,,0.00,,2013-06-20 07:11:00,
2013-06-20 00:22:00,53.0,53.0,-100.00,ENE,74,0.0,0.0,100,0.00,,,0.00,,2013-06-20 07:22:00,
2013-06-20 00:33:00,53.0,53.0,-100.00,ENE,74,0.0,0.0,100,0.00,,,0.00,,2013-06-20 07:33:00,
2013-06-20 00:43:00,52.0,52.0,-100.00,ENE,74,0.0,0.0,100,0.00,,,0.00,,2013-06-20 07:43:00,
2013-06-20 00:52:00,52.0,52.0,-100.00,ENE,74,0.0,0.0,100,0.00,,,0.00,,2013-06-20 07:52:00,
2013-06-20 01:01:00,53.0,53.0,-100.00,ENE,74,0.0,0.0,100,0.00,,,0.00,,2013-06-20 08:01:00,
2013-06-20 01:11:00,53.0,53.0,-100.00,ENE,74,0.0,0.0,100,0.00,,,0.00,,2013-06-20 08:11:00,
2013-06-20 01:22:00,53.0,53.0,-100.00,ENE,74,0.0,0.0,100,0.00,,,0.00,,2013-06-20 08:22:00,
2013-06-20 01:33:00,53.0,53.0,-100.00,ENE,74,0.0,0.0,100,0.00,,,0.00,,2013-06-20 08:33:00,
2013-06-20 01:43:00,53.0,53.0,-100.00,ENE,74,0.0,0.0,100,0.00,,,0.00,,2013-06-20 08:43:00,
2013-06-20 01:52:00,53.0,53.0,-100.00,ENE,74,0.0,0.0,100,0.00,,,0.00,,2013-06-20 08:52:00,
2013-06-20 02:01:00,53.0,53.0,-100.00,ENE,74,0.0,0.0,100,0.00,,,0.00,,2013-06-20 09:01:00,
2013-06-20 02:11:00,53.0,53.0,-100.00,ENE,74,0.0,0.0,100,0.00,,,0.00,,2013-06-20 09:11:00,
2013-06-20 02:21:00,53.0,53.0,-100.00,ENE,74,0.0,0.0,100,0.00,,,0.00,,2013-06-20 09:21:00,
2013-06-20 02:33:00,53.0,53.0,-100.00,ENE,74,0.0,0.0,100,0.00,,,0.00,,2013-06-20 09:33:00,
2013-06-20 02:42:00,52.0,52.0,-100.00,ENE,74,0.0,0.0,100,0.00,,,0.00,,2013-06-20 09:42:00,
2013-06-20 02:52:00,51.0,51.0,-100.00,ENE,74,0.0,0.0,100,0.00,,,0.00,,2013-06-20 09:52:00,
2013-06-20 03:01:00,52.0,52.0,-100.00,ENE,74,0.0,0.0,100,0.00,,,0.00,,2013-06-20 10:01:00,
2013-06-20 03:11:00,52.0,52.0,-100.00,ENE,74,0.0,0.0,100,0.00,,,0.00,,2013-06-20 10:11:00,
2013-06-20 03:22:00,51.0,51.0,-100.00,ENE,74,0.0,0.0,100,0.00,,,0.00,,2013-06-20 10:22:00,
2013-06-20 03:33:00,51.0,51.0,-100.00,ENE,74,0.0,0.0,100,0.00,,,0.00,,2013-06-20 10:33:00,
2013-06-20 03:43:00,51.0,51.0,-100.00,ENE,74,0.0,0.0,100,0.00,,,0.00,,2013-06-20 10:43:00,
2013-06-20 03:53:00,52.0,52.0,-100.00,ENE,74,0.0,0.0,100,0.00,,,0.00,,2013-06-20 10:53:00,
2013-06-20 04:01:00,52.0,52.0,-100.00,ENE,74,0.0,0.0,100,0.00,,,0.00,,2013-06-20 11:01:00,
2013-06-20 04:11:00,53.0,53.0,-100.00,ENE,74,0.0,0.0,100,0.00,,,0.00,,2013-06-20 11:11:00,
2013-06-20 04:22:00,52.0,52.0,-100.00,ENE,74,0.0,0.0,100,0.00,,,0.00,,2013-06-20 11:22:00,
2013-06-20 04:33:00,52.0,52.0,-100.00,ENE,74,0.0,0.0,100,0.00,,,0.00,,2013-06-20 11:33:00,
2013-06-20 04:42:00,51.0,51.0,-100.00,ENE,74,0.0,0.0,100,0.00,,,0.00,,2013-06-20 11:42:00,
2013-06-20 04:52:00,51.0,51.0,-100.00,ENE,74,0.0,0.0,100,0.00,,,0.00,,2013-06-20 11:52:00,
2013-06-20 05:02:00,52.0,52.0,-100.00,ENE,74,0.0,0.0,100,0.00,,,0.00,,2013-06-20 12:02:00,
2013-06-20 05:11:00,52.0,52.0,-100.00,ENE,74,0.0,0.0,100,0.00,,,0.00,,2013-06-20 12:11:00,
2013-06-20 05:22:00,52.0,52.0,-100.00,ENE,74,0.0,0.0,100,0.00,,,0.00,,2013-06-20 12:22:00,
2013-06-20 05:33:00,52.0,52.0,-100.00,ENE,74,0.0,0.0,100,0.00,,,0.00,,2013-06-20 12:33:00,
2013-06-20 05:43:00,52.0,52.0,-100.00,ENE,74,0.0,0.0,100,0.00,,,0.00,,2013-06-20 12:43:00,
2013-06-20 05:53:00,52.0,52.0,-100.00,ENE,74,0.0,0.0,100,0.00,,,0.00,,2013-06-20 12:53:00,
2013-06-20 06:01:00,52.0,52.0,-100.00,ENE,74,0.0,0.0,100,0.00,,,0.00,,2013-06-20 13:01:00,
2013-06-20 06:11:00,52.0,52.0,-100.00,ENE,74,0.0,0.0,100,0.00,,,0.00,,2013-06-20 13:11:00,
2013-06-20 06:22:00,52.0,52.0,-100.00,ENE,74,0.0,0.0,100,0.00,,,0.00,,2013-06-20 13:22:00,
2013-06-20 06:33:00,52.0,52.0,-100.00,ENE,74,0.0,0.0,100,0.00,,,0.00,,2013-06-20 13:33:00,
2013-06-20 06:42:00,52.0,52.0,-100.00,ENE,74,0.0,0.0,100,0.00,,,0.00,,2013-06-20 13:42:00,
2013-06-20 06:53:00,53.0,53.0,-100.00,ENE,74,0.0,0.0,100,0.00,,,0.00,,2013-06-20 13:53:00,
2013-06-20 07:01:00,53.0,53.0,-100.00,ENE,74,0.0,0.0,100,0.00,,,0.00,,2013-06-20 14:01:00,
2013-06-20 07:11:00,54.0,54.0,-100.00,ENE,74,0.0,0.0,100,0.00,,,0.00,,2013-06-20 14:11:00,
2013-06-20 07:22:00,54.0,54.0,-100.00,ENE,74,0.0,0.0,100,0.00,,,0.00,,2013-06-20 14:22:00,
2013-06-20 07:32:00,54.0,54.0,-100.00,ENE,74,0.0,0.0,100,0.00,,,0.00,,2013-06-20 14:32:00,
2013-06-20 07:42:00,55.0,55.0,-100.00,ENE,74,0.0,0.0,100,0.00,,,0.00,,2013-06-20 14:42:00,
2013-06-20 07:53:00,55.0,55.0,-100.00,ENE,74,0.0,0.0,100,0.00,,,0.00,,2013-06-20 14:53:00,
2013-06-20 08:01:00,55.0,55.0,-100.00,ENE,74,0.0,0.0,100,0.00,,,0.00,,2013-06-20 15:01:00,
2013-06-20 08:11:00,55.0,55.0,-100.00,ENE,74,0.0,0.0,100,0.00,,,0.00,,2013-06-20 15:11:00,
2013-06-20 08:21:00,55.0,55.0,-100.00,ENE,74,0.0,0.0,100,0.00,,,0.00,,2013-06-20 15:21:00,
2013-06-20 08:33:00,55.0,55.0,-100.00,ENE,74,0.0,0.0,100,0.00,,,0.00,,2013-06-20 15:33:00,
2013-06-20 08:43:00,55.0,55.0,-100.00,ENE,74,0.0,0.0,100,0.00,,,0.00,,2013-06-20 15:43:00,
2013-06-20 08:52:00,55.0,55.0,-100.00,ENE,74,0.0,0.0,100,0.00,,,0.00,,2013-06-20 15:52:00,
2013-06-20 09:01:00,56.0,56.0,-100.00,ENE,74,0.0,0.0,100,0.00,,,0.00,,2013-06-20 16:01:00,
2013-06-20 09:11:00,56.0,56.0,-100.00,ENE,74,0.0,0.0,100,0.00,,,0.00,,2013-06-20 16:11:00,
2013-06-20 09:22:00,56.0,56.0,-100.00,ENE,74,0.0,0.0,100,0.00,,,0.00,,2013-06-20 16:22:00,
2013-06-20 09:32:00,56.0,56.0,-100.00,ENE,74,0.0,0.0,100,0.00,,,0.00,,2013-06-20 16:32:00,
2013-06-20 09:42:00,56.0,56.0,-100.00,ENE,74,0.0,0.0,100,0.00,,,0.00,,2013-06-20 16:42:00,
2013-06-20 10:32:00,59.0,59.0,-100.00,ENE,74,0.0,0.0,100,0.00,,,0.00,,2013-06-20 17:32:00,
2013-06-20 14:01:00,57.0,57.0,-100.00,ENE,74,0.0,0.0,100,0.00,,,0.00,,2013-06-20 21:01:00,
2013-06-20 21:11:00,54.0,54.0,-100.00,ENE,74,0.0,0.0,100,0.00,,,0.00,,2013-06-21 04:11:00,